Wind_Speed
4 3 3 4 6 9 9 8 8 8 8 8 8 8 8 8 8 8 9 8 8 8 8 7 7 6 6 6 7 6 6 6 5 5 5 6 6 6 6 7 7 7 7
4 3 4 5 7 8 8 8 8 9 8 8 9 8 8 7 7 8 8 8 7 7 8 8 7 6 6 6 6 6 5 5 5 5 4 5 6 6 6 7 7 7 7
4 3 4 6 7 8 8 8 9 9 8 9 9 8 8 7 8 8 7 7 7 6 7 7 6 6 6 6 6 5 5 4 4 5 5 5 5 5 6 6 6 7 7
3 4 4 6 7 7 8 8 9 9 9 9 9 8 8 8 8 8 7 6 6 6 6 6 6 6 6 5 5 5 4 4 4 4 5 5 5 5 5 5 5 6 6
4 4 5 6 7 6 6 7 9 9 9 9 9 8 8 8 8 8 7 7 6 6 6 5 5 5 5 5 5 4 4 3 4 4 4 5 5 5 5 5 5 5 4
5 5 6 6 7 7 6 7 8 9 10 10 9 8 8 8 8 8 7 7 6 6 6 6 5 4 4 4 4 4 4 3 3 3 4 4 4 4 4 4 4 4 4
4 4 6 7 7 7 7 7 8 8 10 10 9 9 9 8 8 7 6 6 5 6 5 5 5 5 4 3 3 4 3 2 2 2 3 3 3 3 3 3 3 2 3
5 4 6 7 8 7 8 8 8 9 9 10 10 9 9 8 7 7 6 6 5 5 5 5 5 4 4 3 3 3 3 2 2 3 3 3 2 2 2 1 1 1 2
6 5 7 8 8 7 8 8 8 9 9 10 9 9 8 8 7 7 6 6 5 5 5 5 4 4 4 3 3 3 3 3 3 3 3 2 2 2 1 1 0 1 0
7 6 7 8 7 6 7 8 9 9 9 9 9 9 9 8 7 7 6 6 6 6 5 5 5 5 5 5 4 4 4 3 3 3 3 3 2 2 2 2 1 1 1
9 8 8 7 6 6 7 8 9 9 9 9 9 9 8 8 8 7 6 6 6 5 6 5 5 4 6 6 5 5 5 4 3 3 3 3 3 3 3 3 3 3 3
9 8 7 7 6 6 7 7 8 9 9 9 9 8 8 7 8 7 7 6 6 5 5 5 5 4 5 5 5 5 5 4 3 4 4 3 3 4 4 4 3 4 5
10 9 8 7 6 7 7 7 7 8 8 8 8 7 7 7 7 7 8 7 7 6 5 5 5 4 3 4 4 5 4 4 4 4 4 4 3 4 4 4 4 4 5
11 9 7 7 7 8 7 7 7 8 8 8 7 7 7 7 8 7 8 7 7 7 6 6 5 4 4 4 5 5 5 6 5 4 4 4 3 3 3 3 3 3 3
11 10 8 7 7 7 6 6 8 7 7 8 7 6 6 8 7 7 7 7 6 6 7 7 5 4 4 4 6 7 7 6 6 5 5 4 4 4 4 4 4 3 3
9 8 7 7 6 6 6 6 7 7 6 7 7 6 7 7 7 7 7 7 7 6 6 6 5 4 4 4 6 6 7 6 6 5 4 4 4 5 5 5 5 4 4
9 7 6 6 6 6 5 6 6 6 5 6 6 6 6 6 6 6 7 7 7 6 6 6 5 5 4 5 6 6 6 6 6 5 5 5 5 5 5 5 5 5 4
8 7 6 5 4 4 5 5 5 4 4 4 5 6 6 6 6 7 6 6 7 7 7 6 6 6 6 6 6 6 6 7 7 7 6 6 6 6 6 6 6 6 5
7 6 5 5 4 3 3 4 4 3 3 3 4 5 5 6 6 6 6 7 6 7 7 7 7 8 8 8 8 7 6 7 8 8 7 7 6 6 6 6 6 6 7
7 6 5 3 3 2 1 2 2 2 3 4 4 4 5 5 6 7 8 8 7 7 8 8 8 8 9 9 9 8 8 8 8 8 8 7 7 7 7 7 8 8 8
7 5 4 2 1 1 1 1 1 1 2 3 3 4 5 6 7 7 8 9 9 9 8 9 9 9 10 10 10 9 9 8 9 9 9 9 8 8 8 9 9 8 9
6 5 4 3 2 1 2 1 1 2 3 3 3 4 6 7 7 8 8 8 9 9 9 9 10 10 10 10 10 10 10 9 10 10 10 10 10 10 9 10 10 10 10
6 5 4 3 2 2 3 3 2 3 3 4 5 5 6 7 8 8 8 9 9 9 9 10 11 11 10 11 11 11 11 11 11 12 12 12 12 12 12 12 12 12 12
5 4 4 3 2 3 3 3 3 4 5 5 5 5 7 8 8 8 9 9 10 10 10 11 11 10 10 11 12 12 12 13 13 13 13 14 14 14 14 14 13 14 15
5 4 4 4 3 3 3 4 4 5 5 6 6 6 7 9 9 9 10 10 10 11 11 12 12 11 10 11 12 13 13 13 13 14 14 14 14 14 14 15 15 15 15
7 6 5 4 4 4 4 4 5 5 6 7 8 8 9 9 10 11 11 12 12 12 12 13 13 12 12 12 12 13 13 14 14 15 15 15 15 14 15 15 16 16 17
Wind_Direction
49 80 118 132 133 145 151 150 151 154 153 151 148 144 143 144 142 143 146 144 144 142 142 138 138 135 132 127 121 119 112 102 96 94 93 91 91 93 92 95 98 98 98
58 83 125 141 141 141 149 149 150 156 157 156 155 152 148 148 149 148 150 154 153 149 147 141 142 141 138 140 133 126 116 107 101 99 94 93 92 94 97 100 98 99 100
70 97 125 146 148 150 153 152 154 157 159 161 157 157 153 151 153 153 153 156 155 152 146 145 146 145 141 143 140 132 121 114 108 101 99 98 94 94 97 101 99 98 99
68 108 123 139 146 151 155 157 158 157 161 163 160 158 158 157 156 163 162 160 156 157 152 151 149 148 148 149 147 140 131 123 119 113 103 99 99 97 101 103 100 99 99
81 116 128 136 142 144 151 158 163 159 162 165 164 162 164 162 158 159 165 167 165 164 159 160 155 154 153 157 153 147 141 133 128 121 112 107 104 101 102 99 101 101 100
84 113 128 134 137 137 144 154 160 162 164 167 164 161 162 162 160 160 168 168 170 171 165 163 162 165 162 165 159 152 147 138 134 128 124 116 111 106 103 97 91 93 96
83 113 135 138 140 140 144 152 155 159 163 166 165 164 161 161 163 169 169 166 168 170 169 169 170 172 169 171 174 168 161 152 151 144 132 127 122 116 108 94 77 73 87
91 117 135 144 142 139 147 153 155 159 161 164 162 162 164 163 162 167 164 166 167 171 178 179 176 176 179 189 195 184 176 173 176 156 147 141 139 130 117 98 71 61 74
85 110 134 141 144 144 150 152 150 150 152 157 160 164 163 162 160 158 162 165 165 173 173 177 188 190 196 201 206 202 194 189 181 163 163 164 173 167 157 173 4 344 13
79 99 128 138 143 146 147 151 150 152 154 159 162 165 165 166 163 161 160 168 174 176 179 190 194 192 200 205 205 211 206 203 195 189 189 189 196 213 223 239 276 291 286
84 98 113 125 138 137 140 147 151 151 155 161 166 168 170 171 167 164 167 177 184 182 186 194 196 200 197 199 205 211 209 214 221 213 209 205 212 234 248 255 267 273 279
81 90 102 109 114 128 134 144 152 157 158 162 168 171 174 177 173 174 178 182 190 192 199 200 194 190 189 188 197 202 204 214 223 217 217 211 221 247 258 262 270 280 281
72 78 88 96 99 115 124 137 148 156 158 161 166 173 180 182 179 184 187 189 195 196 199 201 193 188 190 200 201 200 197 199 207 211 214 217 231 256 268 274 280 284 287
65 72 82 89 96 110 122 132 138 146 152 159 166 176 185 183 182 188 193 193 197 199 200 195 193 198 199 210 211 196 195 200 207 210 213 223 231 253 271 277 280 288 294
61 69 77 82 95 106 115 127 132 140 150 157 163 172 180 182 186 191 191 196 195 198 198 195 195 203 209 220 211 198 200 203 210 220 225 230 242 261 271 277 277 283 289
57 64 71 78 86 100 111 120 129 138 149 160 162 168 176 183 188 190 194 192 194 197 208 212 213 216 226 228 224 212 203 206 216 233 234 240 255 270 276 277 277 278 278
52 61 69 71 78 93 104 117 125 132 142 156 164 173 178 181 187 190 192 198 203 206 213 216 216 218 227 225 226 221 215 224 233 242 244 252 264 271 274 272 275 270 271
47 60 64 63 59 79 99 112 124 130 139 153 175 185 190 193 196 197 203 208 212 216 218 220 219 222 227 226 228 230 233 235 239 244 250 260 271 279 276 270 274 272 272
36 47 52 54 50 72 96 113 122 132 147 166 176 188 199 203 206 208 210 215 218 222 221 225 230 232 235 233 233 235 242 247 248 248 251 261 269 279 279 276 273 271 271
25 26 23 35 45 50 94 134 130 150 158 173 191 202 209 213 221 225 220 219 223 225 227 231 234 238 240 241 238 241 246 253 254 254 260 269 272 276 279 280 276 276 277
10 9 7 15 10 359 173 167 182 191 188 199 213 220 226 226 226 231 230 228 229 230 233 233 234 238 240 241 244 243 247 253 258 259 264 270 275 278 280 278 282 284 280
352 356 360 354 328 298 244 230 214 217 222 231 228 228 230 229 233 235 240 237 235 236 240 240 239 241 242 243 246 250 251 251 254 259 265 269 272 278 278 277 280 280 280
338 340 345 335 308 264 241 236 240 228 231 239 240 238 237 236 240 236 238 235 234 239 242 244 246 247 249 248 248 252 254 255 258 262 268 269 272 277 278 279 279 278 279
318 316 323 315 291 266 244 238 250 250 248 251 252 251 247 243 240 239 241 239 240 242 243 245 247 248 250 250 252 252 254 255 260 267 272 273 273 275 279 280 280 280 278
315 295 293 299 287 269 257 253 259 260 257 255 256 255 250 243 242 244 243 243 245 245 245 247 249 250 253 255 252 250 254 259 265 268 272 274 276 276 279 280 282 283 282
303 290 278 284 281 269 264 264 265 264 261 259 258 255 254 250 247 247 247 251 252 251 250 250 253 255 257 257 254 253 255 259 265 269 273 275 277 278 279 278 280 282 283
Height
5867 5866 5866 5866 5866 5869 5872 5873 5875 5877 5878 5880 5881 5882 5884 5885 5886 5887 5888 5890 5891 5892 5894 5895 5896 5896 5897 5898 5899 5899 5900 5900 5900 5901 5901 5901 5902 5902 5902 5902 5903 5903 5903
5868 5867 5867 5868 5869 5871 5872 5874 5876 5877 5879 5880 5882 5883 5885 5886 5887 5888 5889 5891 5892 5893 5894 5896 5897 5898 5898 5899 5900 5900 5901 5901 5902 5902 5902 5903 5903 5903 5904 5904 5904 5904 5904
5869 5869 5869 5870 5871 5872 5873 5874 5876 5878 5879 5881 5882 5884 5885 5887 5888 5889 5890 5892 5893 5894 5896 5897 5898 5899 5899 5900 5901 5901 5902 5902 5903 5903 5904 5904 5904 5905 5905 5905 5905 5905 5905
5869 5869 5869 5870 5872 5873 5874 5875 5876 5878 5880 5881 5883 5884 5886 5887 5889 5890 5891 5893 5894 5895 5896 5897 5898 5899 5900 5901 5901 5902 5903 5903 5904 5904 5905 5905 5905 5906 5906 5906 5906 5906 5906
5869 5869 5870 5871 5872 5873 5874 5875 5876 5878 5880 5881 5883 5885 5886 5888 5889 5891 5892 5894 5895 5896 5897 5898 5899 5900 5901 5902 5902 5903 5904 5904 5905 5905 5906 5906 5906 5907 5907 5907 5907 5907 5907
5869 5870 5870 5872 5873 5873 5874 5875 5877 5878 5880 5882 5884 5885 5887 5888 5890 5891 5893 5894 5896 5897 5898 5899 5900 5901 5902 5902 5903 5904 5904 5905 5906 5906 5906 5907 5907 5907 5908 5908 5908 5908 5908
5870 5870 5871 5872 5873 5874 5875 5876 5877 5879 5881 5882 5884 5886 5887 5889 5891 5892 5893 5895 5896 5897 5898 5899 5900 5901 5902 5903 5903 5904 5905 5905 5906 5906 5907 5908 5908 5908 5908 5909 5909 5909 5909
5871 5871 5871 5872 5873 5874 5875 5877 5878 5879 5881 5883 5885 5887 5888 5890 5891 5893 5894 5895 5896 5898 5899 5900 5901 5902 5903 5903 5904 5904 5905 5906 5906 5907 5907 5908 5908 5909 5909 5909 5909 5909 5909
5871 5871 5871 5872 5873 5875 5876 5877 5879 5880 5882 5884 5886 5887 5889 5890 5892 5893 5894 5896 5897 5898 5899 5900 5901 5902 5903 5903 5904 5904 5905 5906 5906 5907 5908 5908 5909 5909 5909 5909 5909 5909 5910
5873 5872 5872 5873 5874 5875 5876 5877 5879 5881 5882 5884 5886 5888 5889 5891 5892 5893 5895 5896 5897 5898 5899 5900 5901 5901 5902 5903 5904 5904 5905 5906 5907 5907 5908 5908 5909 5909 5909 5909 5910 5910 5909
5875 5873 5874 5874 5875 5876 5877 5878 5880 5881 5883 5885 5886 5887 5889 5891 5892 5893 5895 5896 5897 5898 5900 5900 5901 5901 5902 5903 5903 5904 5905 5906 5907 5907 5908 5908 5909 5909 5909 5909 5909 5909 5909
5877 5876 5876 5876 5877 5877 5878 5879 5881 5882 5884 5885 5886 5888 5889 5891 5892 5894 5895 5896 5898 5899 5900 5900 5900 5901 5902 5902 5903 5904 5905 5906 5907 5907 5908 5908 5908 5909 5909 5909 5909 5909 5909
5879 5878 5878 5878 5878 5879 5879 5880 5881 5882 5884 5885 5887 5888 5890 5891 5893 5894 5895 5896 5898 5899 5899 5900 5900 5901 5902 5902 5903 5904 5905 5906 5906 5907 5907 5908 5908 5908 5909 5908 5908 5908 5908
5881 5880 5880 5880 5880 5880 5881 5881 5882 5883 5884 5886 5887 5888 5890 5891 5892 5894 5895 5896 5897 5898 5899 5900 5901 5902 5902 5902 5902 5903 5905 5905 5906 5907 5907 5908 5908 5908 5908 5908 5908 5908 5907
5882 5882 5882 5881 5881 5882 5882 5882 5883 5884 5885 5886 5887 5888 5890 5891 5892 5893 5895 5896 5897 5898 5899 5900 5901 5902 5902 5902 5902 5903 5904 5905 5906 5907 5907 5907 5907 5908 5908 5908 5907 5907 5907
5884 5884 5883 5883 5883 5883 5883 5883 5884 5885 5886 5886 5887 5889 5890 5891 5892 5893 5894 5896 5897 5898 5899 5900 5901 5902 5902 5902 5903 5903 5904 5905 5905 5906 5907 5907 5907 5907 5907 5907 5907 5907 5907
5886 5885 5885 5884 5884 5884 5884 5884 5885 5885 5886 5887 5888 5889 5890 5891 5892 5893 5894 5896 5897 5898 5899 5900 5901 5901 5902 5902 5903 5903 5904 5905 5905 5906 5906 5906 5907 5906 5906 5906 5906 5906 5906
5888 5887 5886 5886 5885 5885 5885 5885 5885 5886 5886 5887 5888 5888 5890 5891 5892 5893 5894 5896 5897 5898 5898 5899 5900 5901 5901 5902 5902 5903 5904 5904 5905 5905 5905 5905 5906 5906 5905 5905 5905 5905 5905
5889 5888 5887 5886 5886 5886 5886 5886 5886 5886 5887 5887 5887 5888 5890 5890 5892 5893 5894 5895 5896 5897 5898 5899 5900 5900 5901 5901 5902 5902 5903 5903 5904 5904 5904 5904 5905 5904 5904 5904 5904 5904 5903
5889 5888 5887 5887 5887 5886 5886 5886 5886 5887 5887 5887 5888 5888 5889 5890 5891 5892 5893 5894 5895 5896 5897 5897 5898 5899 5899 5900 5901 5901 5902 5902 5902 5903 5903 5903 5903 5903 5903 5903 5903 5902 5902
5890 5889 5888 5887 5887 5887 5887 5886 5886 5887 5887 5887 5887 5888 5888 5889 5890 5891 5892 5893 5894 5895 5895 5896 5897 5897 5898 5898 5899 5900 5900 5900 5901 5901 5901 5901 5902 5902 5901 5901 5901 5900 5900
5890 5889 5888 5887 5887 5886 5886 5886 5886 5887 5887 5887 5887 5887 5887 5888 5889 5890 5891 5892 5893 5893 5894 5894 5895 5895 5896 5896 5897 5897 5898 5899 5899 5899 5899 5899 5899 5899 5899 5899 5899 5898 5898
5889 5888 5887 5886 5886 5886 5886 5886 5886 5886 5886 5886 5886 5886 5887 5888 5888 5889 5890 5890 5891 5892 5892 5893 5893 5893 5893 5894 5894 5895 5896 5896 5896 5897 5896 5896 5896 5896 5896 5896 5896 5895 5895
5887 5886 5886 5885 5885 5885 5885 5885 5885 5885 5885 5885 5885 5885 5886 5886 5887 5887 5888 5889 5889 5890 5890 5891 5891 5891 5891 5892 5892 5893 5893 5893 5894 5894 5894 5893 5893 5893 5893 5893 5893 5892 5892
5885 5884 5884 5884 5885 5885 5885 5884 5884 5884 5884 5884 5884 5884 5885 5885 5885 5886 5886 5887 5887 5888 5888 5888 5889 5889 5889 5889 5890 5890 5890 5891 5891 5891 5891 5891 5890 5890 5890 5890 5889 5889 5888
5884 5883 5882 5883 5884 5884 5884 5883 5883 5883 5882 5882 5882 5883 5883 5883 5883 5884 5884 5884 5885 5885 5885 5886 5886 5887 5887 5887 5887 5887 5887 5888 5888 5888 5888 5887 5887 5887 5886 5886 5885 5884 5884